User: anonymous   Login
Location: LDNL
(36.4545°S, 141.6685°E)
Time: 23:57:29
(UTC+11:00)
Language:

Vanguard 3 - Orbit

View from above orbital plane
View from above orbital plane
View from above satellite
View from above satellite

Ground track
Ground track

The orbit data is extracted from the following two-line orbital elements,

1 00020U 59007A   24064.55901858  .00001458  00000-0  57658-3 0  9992
2 00020  33.3568  24.5565 1654948 269.8947  71.2816 11.58190254387639
Epoch (UTC): 04 March 2024 13:24:59
Eccentricity: 0.1654948
inclination: 33.3568°
perigee height: 508 km
apogee height: 3239 km
right ascension of ascending node: 24.5565°
argument of perigee: 269.8947°
revolutions per day: 11.58190254
mean anomaly at epoch: 71.2816°
orbit number at epoch: 38763

The dashed part of the orbit path shows where the satellite is in the earth's shadow,  

DLR